KZ1X Weather Reports


Display with metric or nautical units.
time (UTC)temp
F
wind
direction
speed
MPH
gust
MPH
rain 1hr
in
rain 24hr
in
rain mn
in
humidity
%
barometer
mb
20240616191524 83 271 0.0 1.0 0.00 0.00 0.00 64 1021.4
20240616190027 84 283 0.0 2.0 0.00 0.00 0.00 65 1021.4
20240616184523 85 221 1.0 3.0 0.00 0.00 0.00 58 1021.5
20240616183023 84 0 0.0 1.0 0.00 0.00 0.00 64 1021.6
20240616181523 84 236 0.0 2.0 0.00 0.00 0.00 61 1021.8
20240616180021 83 224 0.0 1.0 0.00 0.00 0.00 63 1021.9
20240616174517 82 0 0.0 1.0 0.00 0.00 0.00 62 1022.1
20240616173039 82 0 0.0 1.0 0.00 0.00 0.00 65 1022.2
20240616171522 84 0 0.0 1.0 0.00 0.00 0.00 64 1022.3
20240616170022 84 0 0.0 2.0 0.00 0.00 0.00 61 1022.4
20240616164548 83 0 0.0 1.0 0.00 0.00 0.00 63 1022.4
20240616163020 83 0 0.0 3.0 0.00 0.00 0.00 60 1022.5
20240616161522 83 0 0.0 3.0 0.00 0.00 0.00 59 1022.6
20240616160023 84 237 0.0 2.0 0.00 0.00 0.00 54 1022.5
20240616154541 85 247 1.0 2.0 0.00 0.00 0.00 53 1022.6
20240616153023 84 0 0.0 4.0 0.00 0.00 0.00 56 1022.4
20240616151535 83 0 0.0 2.0 0.00 0.00 0.00 58 1022.4
20240616150021 81 187 0.0 2.0 0.00 0.00 0.00 58 1022.6
20240616144523 81 212 0.0 2.0 0.00 0.00 0.00 63 1022.4
20240616143023 80 229 0.0 2.0 0.00 0.00 0.00 60 1022.6
20240616141542 79 236 0.0 3.0 0.00 0.00 0.00 65 1022.5
20240616140021 78 0 0.0 5.0 0.00 0.00 0.00 64 1022.4
20240616134523 78 161 0.0 2.0 0.00 0.00 0.00 68 1022.6
20240616133022 77 0 0.0 4.0 0.00 0.00 0.00 75 1022.5
20240616131521 76 312 0.0 2.0 0.00 0.00 0.00 78 1022.6
20240616130024 75 0 0.0 2.0 0.00 0.00 0.00 80 1022.3
20240616124530 74 333 0.0 1.0 0.00 0.00 0.00 84 1022.1
20240616123024 73 256 0.0 1.0 0.00 0.00 0.00 84 1022.1
20240616121520 73 302 0.0 1.0 0.00 0.00 0.00 85 1022.1
20240616120023 72 0 0.0 1.0 0.00 0.00 0.00 87 1021.9
20240616114529 70 0 0.0 0.0 0.00 0.00 0.00 91 1021.7
20240616113020 69 0 0.0 1.0 0.00 0.00 0.00 92 1021.7
20240616111525 69 0 0.0 1.0 0.00 0.00 0.00 93 1021.3
20240616110035 68 0 0.0 1.0 0.00 0.00 0.00 94 1021.0
20240616104522 68 0 0.0 0.0 0.00 0.00 0.00 93 1021.0
20240616103027 68 0 0.0 0.0 0.00 0.00 0.00 93 1020.8
20240616101522 68 0 0.0 0.0 0.00 0.00 0.00 94 1020.9
20240616100020 68 0 0.0 0.0 0.00 0.00 0.00 93 1020.8
20240616094535 68 0 0.0 0.0 0.00 0.00 0.00 93 1020.7
20240616093021 68 0 0.0 0.0 0.00 0.00 0.00 93 1020.5
20240616091517 68 0 0.0 0.0 0.00 0.00 0.00 93 1020.5
20240616090024 68 0 0.0 0.0 0.00 0.00 0.00 92 1020.1
20240616084522 68 0 0.0 0.0 0.00 0.00 0.00 90 1020.1
20240616083022 69 0 0.0 0.0 0.00 0.00 0.00 91 1019.9
20240616081536 69 0 0.0 0.0 0.00 0.00 0.00 91 1019.8
20240616080022 69 0 0.0 0.0 0.00 0.00 0.00 90 1019.7
20240616074525 69 0 0.0 0.0 0.00 0.00 0.00 90 1019.7
20240616073028 69 0 0.0 0.0 0.00 0.00 0.00 89 1019.7
20240616071521 69 0 0.0 0.0 0.00 0.00 0.00 88 1019.4
20240616070023 69 0 0.0 0.0 0.00 0.00 0.00 87 1019.3
20240616064532 68 0 0.0 1.0 0.00 0.00 0.00 87 1019.2
20240616063023 68 0 0.0 0.0 0.00 0.00 0.00 85 1019.4
20240616061521 68 0 0.0 0.0 0.00 0.00 0.00 82 1019.4
20240616060024 68 0 0.0 0.0 0.00 0.00 0.00 80 1019.4
20240616054521 68 0 0.0 0.0 0.00 0.00 0.00 79 1019.4
20240616053024 67 0 0.0 0.0 0.00 0.00 0.00 80 1019.4
20240616051520 67 0 0.0 0.0 0.00 0.00 0.00 81 1019.4
20240616050036 66 0 0.0 0.0 0.00 0.00 0.00 84 1019.5
20240616044522 66 0 0.0 0.0 0.00 0.00 0.00 84 1019.5
20240616043026 67 0 0.0 0.0 0.00 0.00 0.00 84 1019.4
20240616041526 67 0 0.0 0.0 0.00 0.00 0.00 85 1019.4
20240616040024 67 0 0.0 0.0 0.00 0.00 0.00 84 1019.3
20240616034532 68 0 0.0 0.0 0.00 0.00 0.00 85 1019.3
20240616033024 69 0 0.0 0.0 0.00 0.00 0.00 85 1019.3
20240616031522 69 0 0.0 0.0 0.00 0.00 0.00 82 1019.0
20240616030021 69 0 0.0 0.0 0.00 0.00 0.00 81 1019.0
20240616024522 70 0 0.0 0.0 0.00 0.00 0.00 80 1018.9
20240616023021 70 0 0.0 0.0 0.00 0.00 0.00 78 1018.7
20240616021524 71 0 0.0 0.0 0.00 0.00 0.00 76 1018.7
20240616020024 71 0 0.0 0.0 0.00 0.00 0.00 74 1018.5
20240616014525 72 0 0.0 0.0 0.00 0.00 0.00 72 1018.4
20240616013040 73 0 0.0 0.0 0.00 0.00 0.00 70 1018.1
20240616011527 74 0 0.0 0.0 0.00 0.00 0.00 67 1017.9
20240616010027 75 0 0.0 0.0 0.00 0.00 0.00 66 1017.5
20240616004526 76 0 0.0 0.0 0.00 0.00 0.00 64 1017.3
20240616003035 77 0 0.0 0.0 0.00 0.00 0.00 63 1017.1
20240616001536 78 0 0.0 0.0 0.00 0.00 0.00 63 1016.9
20240616000021 79 0 0.0 0.0 0.00 0.00 0.00 62 1016.7
20240615234522 80 0 0.0 2.0 0.00 0.00 0.00 62 1016.5
20240615233021 80 0 0.0 0.0 0.00 0.00 0.00 61 1016.5
20240615231525 81 0 0.0 0.0 0.00 0.00 0.00 61 1016.5
20240615230020 82 0 0.0 0.0 0.00 0.00 0.00 63 1016.5
20240615224518 83 0 0.0 1.0 0.00 0.00 0.00 58 1016.5
20240615223022 83 0 0.0 2.0 0.00 0.00 0.00 57 1016.3
20240615221523 84 0 0.0 2.0 0.00 0.00 0.00 57 1016.4
20240615220028 84 0 0.0 2.0 0.00 0.00 0.00 54 1016.2
20240615214522 85 0 0.0 1.0 0.00 0.00 0.00 55 1016.1
20240615213018 87 0 0.0 3.0 0.00 0.00 0.00 53 1016.1
20240615211536 86 0 0.0 1.0 0.00 0.00 0.00 50 1016.0
20240615210022 87 0 0.0 2.0 0.00 0.00 0.00 52 1016.0
20240615204526 88 0 0.0 2.0 0.00 0.00 0.00 45 1016.0
20240615203021 89 66 2.0 5.0 0.00 0.00 0.00 45 1016.1
20240615201524 90 0 0.0 2.0 0.00 0.00 0.00 45 1016.1
20240615200017 90 290 0.0 2.0 0.00 0.00 0.00 47 1016.2
20240615194521 91 0 0.0 2.0 0.00 0.00 0.00 43 1016.4
20240615193027 91 159 0.0 2.0 0.00 0.00 0.00 44 1016.5